Location: Fours
(44.3167°N, 6.7000°E)
Time: 01:01:40
(UTC+00:00)

Cosmos 1812 - Visible Passes

Search period start: 16 April 2021 00:00
Search period end: 26 April 2021 00:00
Orbit: 516 x 520 km, 82.5° (Epoch: 15 April)

Date Brightness Start Highest point End Pass type
(mag) Time Alt. Az. Time Alt. Az. Time Alt. Az.
16 Apr 6.0 23:38:44 11° NNE 23:38:44 11° NNE 23:38:50 10° NNE visible
18 Apr 5.7 00:59:31 11° NNW 00:59:31 11° NNW 00:59:40 10° NNW visible
19 Apr 5.7 00:45:14 12° NNW 00:45:14 12° NNW 00:45:36 10° NNW visible
20 Apr 5.7 00:30:57 13° NNW 00:30:57 13° NNW 00:31:29 10° NNW visible
21 Apr 5.6 00:16:39 14° NNW 00:16:39 14° NNW 00:17:20 10° NNW visible
22 Apr 5.6 00:02:21 15° NNW 00:02:21 15° NNW 00:03:10 10° N visible
22 Apr 5.6 23:48:02 16° N 23:48:02 16° N 23:48:58 10° N visible
23 Apr 5.5 23:33:42 17° N 23:33:42 17° N 23:34:45 10° N visible
24 Apr 5.4 23:19:22 18° N 23:19:22 18° N 23:20:31 10° N visible
25 Apr 5.3 23:05:01 20° N 23:05:01 20° N 23:06:15 10° N visible
